[[{"header":{"parameterUnit":"m.s-1","parameterCategory":1,"la1":30.2991,"la2":30.254,"lo1":-89.0895,"lo2":-89.0444,"dy":0.0017,"dx":0.0017,"nx":28,"ny":28,"refTime":"2023-09-08T09:00:00:Z","depth":0,"parameterNumber":2,"parameterNumberName":"U-component_of_WINDS"},"data":[0,0,0,0,0,0,0,0,0,0,0,0,0,0,0,0,0,0,0,0,0,0,0,0,0,0,0,0,0,0,0,0,0,0,0,0,0,0,0,0,0,0,0,0,0,0,0,0,0,0,0,0,0,0,0,0,0,0,0.7075,0.7077,0,0.7257,0.7259,0.7261,0.7285,0.7283,0.7282,0.728,0.7473,0.7479,0.7486,0,0,0,0,0,0,0,0,0,0,0,0,0,0.6753,0.6759,0.7075,0.7077,0.708,0.7257,0.7259,0.7262,0.7285,0.7283,0.7281,0.7279,0.747,0.7478,0.7487,0,0,0,0,0,0,0,0,0,0,0,0,0,0.691,0.6761,0.7075,0.7113,0.7118,0.7256,0.7259,0.7262,0.7286,0.7283,0.7281,0.7278,0.7468,0.7478,0.7488,0.7603,0,0,0.7519,0.7523,0,0,0,0,0,0,0,0,0.6901,0.6922,0.7105,0.711,0.7116,0.7246,0.7217,0.7377,0.7287,0.7222,0.728,0.7277,0.74,0.7415,0.7455,0.7612,0.762,0.752,0.7526,0.753,0.7533,0,0,0,0,0,0,0,0.689,0.6914,0.7147,0.7107,0.7114,0.7122,0.7142,0.7247,0.7324,0.7228,0.723,0.7251,0.7402,0.7445,0.746,0.7623,0.7519,0.7528,0.7535,0.7538,0.7883,0.7886,0,0,0,0,0,0,0.6872,0.6905,0.7141,0.7153,0.7,0.713,0.7152,0.7207,0.7323,0.7338,0.7253,0.7251,0.7429,0.7448,0.7467,0.7609,0.753,0.7539,0.7545,0.788,0.7883,0.7887,0,0,0,0,0,0,0.6865,0.6892,0.7134,0.7029,0.7061,0.7138,0.72,0.7212,0.7255,0.7341,0.7356,0.7282,0.7428,0.7453,0.7568,0.7616,0.7544,0.7553,0.7876,0.7881,0.7885,0.7893,0,0,0,0,0,0,0.6855,0.689,0.6933,0.703,0.7066,0.7231,0.7203,0.7217,0.7272,0.7271,0.7373,0.7387,0.7428,0.7553,0.7578,0.7628,0.7561,0.7872,0.7878,0.7884,0.7889,0.7897,0.7904,0,0,0,0,0,0.6844,0.693,0.6935,0.6964,0.7122,0.7233,0.7254,0.7297,0.7275,0.732,0.7376,0.7384,0.7606,0.7565,0.7593,0.7647,0.7869,0.7876,0.7883,0.7885,0.7896,0.7904,0,0,0,0,0,0,0.6838,0.6943,0.695,0.707,0.7142,0.7237,0.7295,0.7307,0.7389,0.7385,0.7437,0.746,0.7573,0.7622,0.7574,0.7764,0.7736,0.7749,0.7728,0.7738,0.7746,0.7732,0.757,0,0,0,0,0,0.6851,0.6931,0.7019,0.7116,0.7152,0.7217,0.7267,0.7294,0.7372,0.7403,0.7467,0.7544,0.7631,0.7688,0.7773,0.7896,0.7919,0.7947,0.7955,0.7961,0.7972,0.804,0.8053,0.7909,0.7909,0.7909,0,0,0.6878,0.6945,0.6993,0.7117,0.7176,0.7259,0.7243,0.7332,0.7394,0.7418,0.753,0.7579,0.7669,0.7788,0.7844,0.7833,0.8016,0.797,0.7974,0.7982,0.8048,0.8062,0.8074,0.7914,0.7913,0.7912,0,0,0.6969,0.7028,0.7115,0.7174,0.7263,0.7306,0.7327,0.742,0.7453,0.7566,0.7584,0.7661,0.781,0.7872,0.7924,0.8038,0.8049,0.8065,0.8105,0.8171,0.8182,0.8193,0.8233,0.8247,0.8075,0.8075,0.8075,0,0.6992,0.7116,0.7159,0.7246,0.73,0.7323,0.7412,0.7468,0.7581,0.7618,0.7603,0.779,0.7852,0.7986,0.8013,0.8055,0.808,0.8053,0.8177,0.8188,0.8198,0.8237,0.8252,0.8076,0.8076,0.8076,0.8076,0,0.714,0.7226,0.7286,0.7391,0.7452,0.754,0.7597,0.7654,0.7675,0.772,0.7835,0.791,0.801,0.8044,0.8067,0.8181,0.8171,0.8166,0.8139,0.8212,0.8249,0.8265,0.8078,0.8078,0.8077,0.8077,0,0,0.7233,0.736,0.7381,0.7429,0.7528,0.7597,0.7686,0.7782,0.7829,0.7907,0.7983,0.8108,0.8103,0.8162,0.8192,0.825,0.8334,0.8238,0.8241,0.8252,0.8465,0.8467,0.8483,0.8342,0.8345,0.8348,0.8457,0,0.7335,0.7492,0.7533,0.7667,0.7747,0.777,0.7848,0.7918,0.7962,0.8038,0.8088,0.8175,0.8163,0.8198,0.8256,0.8312,0.8378,0.8305,0.8415,0.8418,0.839,0.8503,0.8506,0.8605,0.8472,0.8474,0.8476,0,0.7475,0.7552,0.7694,0.7782,0.7817,0.7886,0.7977,0.8048,0.8129,0.8157,0.8221,0.8246,0.8341,0.8309,0.8441,0.839,0.8438,0.8472,0.8477,0.8489,0.8451,0.8516,0.8638,0.8652,0.85,0.8498,0.8496,0,0.7527,0.7667,0.777,0.7811,0.7916,0.7964,0.8011,0.8089,0.8143,0.8223,0.8259,0.835,0.84,0.847,0.8519,0.8491,0.8647,0.8619,0.8673,0.8672,0.8705,0.8702,0.8834,0.8737,0.8737,0.8736,0.8736,0,0.7636,0.7722,0.7794,0.7857,0.7954,0.8001,0.8096,0.8144,0.8213,0.8286,0.8313,0.8382,0.8442,0.852,0.8559,0.8662,0.8685,0.8711,0.872,0.8708,0.8705,0.874,0.8734,0.8741,0.874,0.8739,0.8738,0,0.771,0.7762,0.7875,0.7966,0.7991,0.8058,0.8136,0.8199,0.8243,0.8336,0.8361,0.8432,0.8525,0.858,0.8699,0.8725,0.8838,0.8846,0.881,0.8814,0.8865,0.8859,0.9024,0.9047,0.8935,0.8936,0.8937,0,0.7776,0.7842,0.7938,0.7988,0.8035,0.8116,0.8171,0.822,0.8277,0.8373,0.8424,0.8518,0.8595,0.8742,0.8806,0.8896,0.8905,0.8957,0.8919,0.8904,0.8905,0.8899,0.8906,0.8963,0.8964,0.8964,0.8965,0,0.7886,0.7908,0.7986,0.8072,0.8137,0.8208,0.8279,0.8319,0.838,0.8443,0.8536,0.8596,0.8715,0.8808,0.8903,0.8954,0.897,0.8976,0.8993,0.8981,0.8957,0.897,0.8826,0.8972,0.8971,0.8971,0.8971,0.897,0.7958,0.8017,0.8093,0.8179,0.8237,0.8302,0.8365,0.8417,0.8495,0.8594,0.8619,0.8717,0.8797,0.8926,0.8978,0.9057,0.9049,0.9074,0.908,0.9085,0.9086,0.8945,0.9075,0.9074,0.9074,0.9074,0.9074,0,0.8068,0.8118,0.8196,0.8293,0.8361,0.8368,0.8447,0.8503,0.8588,0.866,0.8735,0.8842,0.8932,0.9002,0.9095,0.9144,0.9154,0.9167,0.9163,0.9174,0.9088,0.9063,0.9157,0.9157,0.9157,0.9157,0.9157,0.9157,0.8133,0.8233,0.8265,0.8394,0.8445,0.8539,0.8583,0.8644,0.8701,0.8819,0.8893,0.8938,0.9009,0.9107,0.919,0.9208,0.9241,0.9252,0.9272,0.919,0.9181,0.9172,0.9149,0.9259,0.9259,0.9351,0.9352,0.9353]},{"header":{"parameterUnit":"m.s-1","parameterCategory":1,"la1":30.2991,"la2":30.254,"lo1":-89.0895,"lo2":-89.0444,"dy":0.0017,"dx":0.0017,"nx":28,"ny":28,"refTime":"2023-09-08T09:00:00:Z","depth":0,"parameterNumber":3,"parameterNumberName":"V-component_of_WINDS"},"data":[0,0,0,0,0,0,0,0,0,0,0,0,0,0,0,0,0,0,0,0,0,0,0,0,0,0,0,0,0,0,0,0,0,0,0,0,0,0,0,0,0,0,0,0,0,0,0,0,0,0,0,0,0,0,0,0,0,0,1.7529,1.7529,0,1.7521,1.7521,1.7521,1.7446,1.7444,1.7442,1.744,1.7432,1.7433,1.7434,0,0,0,0,0,0,0,0,0,0,0,0,0,1.7479,1.748,1.7529,1.7529,1.7529,1.7521,1.7521,1.7521,1.7446,1.7444,1.7442,1.744,1.7431,1.7433,1.7435,0,0,0,0,0,0,0,0,0,0,0,0,0,1.7489,1.7481,1.7529,1.7491,1.7488,1.7521,1.7521,1.7521,1.7447,1.7444,1.7441,1.7439,1.743,1.7433,1.7435,1.7504,0,0,1.7442,1.7443,0,0,0,0,0,0,0,0,1.7488,1.7491,1.7497,1.7494,1.749,1.7482,1.7499,1.7515,1.7447,1.7462,1.744,1.7437,1.745,1.7451,1.7455,1.7504,1.7503,1.7442,1.7443,1.7444,1.7445,0,0,0,0,0,0,0,1.7488,1.7491,1.7526,1.7497,1.7493,1.7473,1.7472,1.7502,1.7472,1.7461,1.7455,1.7455,1.7448,1.7453,1.7455,1.7503,1.7442,1.7444,1.7445,1.7446,1.7603,1.7606,0,0,0,0,0,0,1.7493,1.7491,1.7526,1.7526,1.7482,1.7477,1.7475,1.7487,1.7471,1.7466,1.7458,1.7452,1.7451,1.7452,1.7454,1.7531,1.7444,1.7446,1.7447,1.76,1.7604,1.7607,0,0,0,0,0,0,1.7492,1.7496,1.7527,1.7507,1.7509,1.748,1.7495,1.7488,1.7494,1.7469,1.7463,1.7469,1.7449,1.7451,1.7491,1.753,1.7447,1.7449,1.7597,1.7601,1.7605,1.7687,0,0,0,0,0,0,1.7491,1.7497,1.7524,1.7508,1.751,1.7565,1.7497,1.749,1.7498,1.749,1.7478,1.7473,1.7447,1.7488,1.7493,1.7531,1.7451,1.7593,1.7599,1.7604,1.7681,1.7694,1.7705,0,0,0,0,0,1.7489,1.7548,1.7525,1.753,1.7544,1.7568,1.7569,1.7537,1.7501,1.7527,1.7511,1.7474,1.7525,1.7493,1.7498,1.7537,1.7591,1.7597,1.7604,1.7676,1.7691,1.7705,0,0,0,0,0,0,1.757,1.7545,1.752,1.7576,1.7574,1.7555,1.7587,1.7555,1.7564,1.7557,1.7517,1.7514,1.756,1.7553,1.7518,1.7601,1.7551,1.7559,1.7604,1.7619,1.7631,1.7631,1.7453,0,0,0,0,0,1.7595,1.7617,1.7594,1.7645,1.7645,1.7616,1.7626,1.7601,1.7598,1.7597,1.7584,1.7582,1.7596,1.7608,1.762,1.768,1.7674,1.7709,1.7721,1.7731,1.7737,1.7764,1.7778,1.7628,1.7628,1.7628,0,0,1.7645,1.7634,1.7651,1.7661,1.7657,1.7679,1.7617,1.7644,1.7659,1.7601,1.7637,1.7628,1.7622,1.7671,1.7692,1.7667,1.7778,1.7739,1.7747,1.7748,1.7772,1.7786,1.7799,1.7632,1.7631,1.7631,0,0,1.7748,1.7744,1.7784,1.778,1.7774,1.7754,1.7763,1.7748,1.7739,1.7775,1.773,1.7748,1.7776,1.7773,1.7775,1.7873,1.7838,1.7878,1.794,1.7967,1.7978,1.7989,1.8021,1.8033,1.7885,1.7885,1.7886,0,1.7812,1.7844,1.7809,1.7837,1.7842,1.7789,1.7828,1.7826,1.7825,1.7829,1.78,1.7831,1.7824,1.787,1.7893,1.7898,1.7906,1.7879,1.798,1.799,1.7999,1.8029,1.8041,1.789,1.789,1.7889,1.7889,0,1.7921,1.7944,1.7977,1.7975,1.7983,1.8018,1.7986,1.7998,1.7972,1.7954,1.7989,1.7979,1.7987,1.7996,1.7972,1.8037,1.8021,1.7987,1.7935,1.8018,1.8045,1.8057,1.7897,1.7895,1.7894,1.7893,0,0,1.8076,1.8052,1.8064,1.8061,1.8049,1.8066,1.8096,1.8103,1.8113,1.8113,1.8136,1.8159,1.8126,1.8128,1.8103,1.8127,1.82,1.8089,1.8088,1.8108,1.8268,1.8293,1.8307,1.8178,1.818,1.8181,1.8268,0,1.8173,1.8223,1.819,1.8246,1.8264,1.8213,1.8239,1.8233,1.8217,1.8229,1.8211,1.8227,1.8184,1.8184,1.8206,1.8187,1.8232,1.8181,1.8196,1.8198,1.8198,1.8322,1.8349,1.8431,1.8279,1.8281,1.8282,0,1.8293,1.8296,1.8353,1.8333,1.834,1.8364,1.8365,1.8379,1.8371,1.8357,1.8358,1.8325,1.8351,1.8302,1.8336,1.8302,1.8306,1.8297,1.83,1.8299,1.8244,1.8322,1.8457,1.8468,1.8299,1.8298,1.8296,0,1.8397,1.8416,1.8451,1.845,1.8429,1.8446,1.8439,1.8427,1.8432,1.8434,1.8436,1.8441,1.8443,1.8447,1.8416,1.8383,1.8453,1.8401,1.844,1.8441,1.8457,1.8456,1.8592,1.8463,1.8463,1.8463,1.8462,0,1.8507,1.8543,1.8496,1.8518,1.8556,1.8517,1.8555,1.8542,1.8532,1.8548,1.8505,1.8521,1.8479,1.8491,1.8467,1.8497,1.8499,1.8487,1.848,1.849,1.8491,1.8491,1.8484,1.8466,1.8465,1.8464,1.8464,0,1.8629,1.86,1.8634,1.8611,1.8605,1.8634,1.8613,1.8631,1.8611,1.8632,1.8635,1.8603,1.8614,1.8583,1.859,1.8573,1.8616,1.8601,1.8619,1.8614,1.8653,1.8649,1.8793,1.8809,1.8672,1.8673,1.8674,0,1.8701,1.8727,1.8705,1.8712,1.8706,1.872,1.8724,1.8686,1.8692,1.8682,1.8701,1.8708,1.8712,1.8731,1.8708,1.8712,1.8695,1.8745,1.8696,1.8704,1.8693,1.8691,1.8692,1.8755,1.8757,1.8758,1.876,0,1.883,1.8813,1.8821,1.8822,1.8828,1.8828,1.8825,1.8833,1.8792,1.8801,1.8811,1.8814,1.8819,1.8826,1.8824,1.8814,1.878,1.8775,1.8784,1.8794,1.8802,1.8796,1.8645,1.8772,1.8771,1.877,1.8769,1.8769,1.8927,1.8946,1.8933,1.8942,1.8935,1.8932,1.8946,1.8927,1.8935,1.8936,1.8913,1.8927,1.8914,1.8908,1.8902,1.8911,1.8888,1.8902,1.8905,1.8908,1.8914,1.8802,1.8911,1.8911,1.891,1.891,1.891,0,1.9052,1.904,1.9048,1.9044,1.905,1.9016,1.9009,1.9017,1.903,1.9021,1.9025,1.9035,1.904,1.9017,1.9018,1.903,1.9014,1.9032,1.903,1.9027,1.8936,1.8927,1.9045,1.9045,1.9045,1.9045,1.9045,1.9045,1.9117,1.9147,1.9128,1.9153,1.914,1.9153,1.9152,1.9148,1.9141,1.9153,1.9157,1.9142,1.9126,1.9126,1.9128,1.9121,1.9123,1.9146,1.9133,1.9048,1.9034,1.9022,1.9013,1.9147,1.9147,1.9223,1.9224,1.9225]}]]